User: anonymous   Login
Location: Antin
(43.3330°N, 0.2804°E)
Time: 11:26:42
(UTC+00:00)
Language:

SME Rocket - Orbit

View from above orbital plane
View from above orbital plane
View from above satellite
View from above satellite

Ground track
Ground track

The orbit data is extracted from the following two-line orbital elements,

1 12889U 81100C   24110.90761552  .00001978  00000-0  97460-3 0  9995
2 12889  99.8598 117.2271 1313256  62.1388   0.5004 12.18939269885244
Epoch (UTC): 19 April 2024 21:46:57
Eccentricity: 0.1313256
inclination: 99.8598°
perigee height: 550 km
apogee height: 2644 km
right ascension of ascending node: 117.2271°
argument of perigee: 62.1388°
revolutions per day: 12.18939269
mean anomaly at epoch: 0.5004°
orbit number at epoch: 88524

The dashed part of the orbit path shows where the satellite is in the earth's shadow,  

DLR